Home   Weather   Acre   Past weeks

Flag for Israel Past Weather in Acre, Israel — Yesterday and Last 2 Weeks

Now
73 °F

Clear.


Feels Like: 74 °F
Forecast: 71 / 84 °F
Wind: 3 mph from North

Location: Sde-Haifa Haifa

Current Time: May 28, 2017 at 5:49:50 am

Latest Report: May 28, 2017 at 4:50 am


Visibility: 10 mi

Pressure: 29.83 "Hg

Humidity: 78%

Dew Point: 66 °F

Location of AcreLocation

Past Weather in Acre — Graph

°F

Acre Temperature Yesterday

Maximum temperature yesterday: 81 °F (at 9:50 am)
Minimum temperature yesterday: 63 °F (at 6:00 am)
Average temperature yesterday: 77 °F

High & Low Weather Summary for the Past Weeks

 TemperatureHumidityPressure
High88 °F (May 14, 3:50 pm)88% (May 13, 7:50 pm)30.04 "Hg (May 13, 7:50 pm)
Low63 °F (May 22, 6:30 am)19% (May 22, 2:50 pm)29.68 "Hg (May 19, 6:00 am)
Average75 °F61%29.90 "Hg
* Reported May 13 6:04 am — May 28 4:50 am, Acre. Weather by CustomWeather, © 2017

Note: Actual official high and low records may vary slightly from our data, if they occured in-between our weather recording intervals... More about our weather records

Advertising

Acre Weather History for the Previous 24 Hours

Scroll right to see more
 ConditionsComfort  
Time TempWeatherWind HumidityBarometerVisibility
4:50 am
Sun, May 28
73 °FClear.3 mph78%29.83 "Hg10 mi
9:50 pm
Sat, May 27
77 °FClear.1 mph69%29.80 "Hg10 mi
8:50 pm79 °FClear.3 mph54%29.77 "Hg10 mi
7:50 pm79 °FClear.6 mph58%29.77 "Hg10 mi
6:50 pm79 °FSunny.5 mph61%29.77 "Hg10 mi
5:50 pm81 °FSunny.7 mph58%29.77 "Hg10 mi
4:50 pm81 °FPassing clouds.9 mph54%29.80 "HgN/A
3:50 pm81 °FPassing clouds.12 mph54%29.83 "HgN/A
2:50 pm79 °FSunny.14 mph58%29.83 "Hg10 mi
1:50 pm79 °FSunny.14 mph54%29.86 "Hg10 mi
12:50 pm79 °FSunny.14 mph48%29.86 "Hg10 mi
11:50 am79 °FSunny.10 mph45%29.89 "Hg10 mi
10:50 am81 °FSunny.7 mph45%29.89 "Hg10 mi
9:50 am81 °FSunny.7 mph32%29.89 "Hg10 mi
8:50 am77 °FSunny.3 mph42%29.92 "Hg10 mi
7:50 am70 °FSunny.2 mph57%29.89 "Hg10 mi
6:50 am66 °FSunny.6 mph64%29.89 "Hg10 mi
6:00 am63 °FSunny.3 mph77%29.89 "Hg10 mi
Weather by CustomWeather, © 2017

See weather overviewHow to use our weather pages